Location: Newark
(13.0000°N, 151.6000°E)
Time: 06:28:52
(UTC+00:00)

ISS - Visible Passes

Search period start: 08 April 2020 00:00
Search period end: 18 April 2020 00:00
Orbit: 418 x 423 km, 51.6° (Epoch: 08 April)

Date Brightness Start Highest point End Pass type
(mag) Time Alt. Az. Time Alt. Az. Time Alt. Az.
09 Apr -1.1 09:58:08 10° NW 09:59:10 18° NW 09:59:10 18° NW visible
10 Apr -3.5 09:11:07 10° NNW 09:14:21 47° NE 09:14:39 45° ENE visible
11 Apr -2.3 08:24:32 10° N 08:27:11 22° NE 08:29:51 10° ESE visible
11 Apr -0.7 10:02:10 10° W 10:03:17 13° WSW 10:03:17 13° WSW visible
12 Apr -1.9 09:13:48 10° WNW 09:16:42 27° SW 09:18:58 14° S visible
13 Apr -3.4 08:26:17 10° NW 08:29:35 65° SW 08:32:54 10° SSE visible
15 Apr -0.7 08:30:20 10° W 08:31:49 12° SW 08:33:18 10° SSW visible
